Terminal Aerodrome Forecast
Issued by NWS

Home | Current Version | Previous Version | Text Only | Print | Product List | Glossary On
Versions: 1 2 3 4 5 6 7 8 9 10 11 12 13 14 15 16 17 18 19 20 21 22
000
FTUS45 KREV 261700
TAFTRK
TAF
KTRK 261733Z 2618/2718 20008KT P6SM SCT220
     FM262100 23010G17KT P6SM SCT100 BKN180
     FM270300 VRB04KT P6SM BKN100 OVC180=

USA.gov is the U.S. government's official web portal to all federal, state and local government web resources and services.